Weather History for Spartanburg, SC

Change the Weather History Date:

Thursday, April 5, 2012

  Actual Average (KGSP) Record (KGSP)
Temperature  
Mean Temperature 68 °F 58 °F  
Max Temperature 80 °F 70 °F 90 °F (1934)
Min Temperature 55 °F 46 °F 25 °F (1904)
Degree Days  
Heating Degree Days 0 8  
Month to date heating degree days 41  
Since 1 July heating degree days 2874  
Cooling Degree Days 2 1  
Month to date cooling degree days 5  
Year to date cooling degree days 13  
Growing Degree Days 18 (Base 50)    
Moisture  
Dew Point 62 °F    
Average Humidity 84    
Maximum Humidity 100    
Minimum Humidity 54    
Precipitation  
Precipitation 0.67 in 0.12 in 2.52 in (1897)
Month to date precipitation 0.59  
Year to date precipitation 12.90  
Snow  
Snow 0.00 in 0.00 in T in (2011)
Month to date snowfall 0.0  
Since 1 July snowfall 4.7  
Snow Depth -    
Sea Level Pressure  
Sea Level Pressure 29.70 in    
Wind  
Wind Speed 3 mph (ENE)    
Max Wind Speed 24 mph    
Max Gust Speed 38 mph    
Visibility 9 miles    
Events Rain , Thunderstorm    
T = Trace of Precipitation, MM = Missing Value Source: NWS Daily Summary

Daily Weather History Graph

Daily Weather History Graph

Search for Another Location

Airport:

Trip Planner

Search our weather history database for the weather conditions in past years. The results will help you decide how hot, cold, wet, or windy it might be!

Date:

Astronomy

Apr. 05, 2012 Rise Set
Actual Time 7:08 AM EDT 7:52 PM EDT
Civil Twilight 6:42 AM EDT 8:18 PM EDT
Nautical Twilight 6:12 AM EDT 8:48 PM EDT
Astronomical Twilight 5:41 AM EDT 9:19 PM EDT
Moon 6:57 PM EDT (4/5) 6:02 AM EDT (4/5)
Length of Visible Light 13h 35m
Length of Day
12h 44m
Waxing Gibbous, 98% of the Moon is Illuminated
Apr 5
Waxing Gibbous
Apr 6
Full
Apr 13
Last Quarter
Apr 21
New
Apr 29
First Quarter

Hourly Weather History & Observations

Time (EDT) Temp. Heat Index Dew Point Humidity Pressure Visibility Wind Dir Wind Speed Gust Speed Precip Events Conditions
12:15 AM 64.4 °F - 62.6 °F 94% 29.70 in 10.0 mi Calm Calm - N/A   Clear
12:35 AM 62.6 °F - 62.6 °F 100% 29.70 in 10.0 mi Calm Calm - N/A   Clear
12:55 AM 62.6 °F - 62.6 °F 100% 29.70 in 10.0 mi Calm Calm - N/A   Clear
1:15 AM 64.4 °F - 64.4 °F 100% 29.69 in 10.0 mi Calm Calm - N/A   Clear
1:35 AM 62.6 °F - 62.6 °F 100% 29.69 in 10.0 mi Calm Calm - N/A   Clear
1:55 AM 62.6 °F - 62.6 °F 100% 29.68 in 10.0 mi Calm Calm - N/A   Clear
2:15 AM 62.6 °F - 62.6 °F 100% 29.69 in 10.0 mi NNE 4.6 mph - N/A   Clear
2:35 AM 62.6 °F - 62.6 °F 100% 29.69 in 10.0 mi Calm Calm - N/A   Clear
2:55 AM 62.6 °F - 62.6 °F 100% 29.70 in 10.0 mi South 3.5 mph - N/A   Clear
3:15 AM 62.6 °F - 62.6 °F 100% 29.69 in 10.0 mi Calm Calm - N/A   Clear
3:35 AM 62.6 °F - 62.6 °F 100% 29.68 in 10.0 mi Calm Calm - N/A   Clear
3:55 AM 62.6 °F - 62.6 °F 100% 29.68 in 10.0 mi Calm Calm - N/A   Clear
4:15 AM 62.6 °F - 62.6 °F 100% 29.68 in 10.0 mi Calm Calm - N/A   Mostly Cloudy
4:35 AM 62.6 °F - 62.6 °F 100% 29.67 in 10.0 mi Calm Calm - N/A   Mostly Cloudy
4:55 AM 62.6 °F - 62.6 °F 100% 29.68 in 10.0 mi West 3.5 mph - N/A   Scattered Clouds
5:15 AM 62.6 °F - 62.6 °F 100% 29.68 in 10.0 mi NW 3.5 mph - N/A   Scattered Clouds
5:35 AM 64.4 °F - 64.4 °F 100% 29.68 in 10.0 mi NW 3.5 mph - N/A   Mostly Cloudy
5:55 AM 64.4 °F - 62.6 °F 94% 29.68 in 10.0 mi Calm Calm - N/A   Mostly Cloudy
6:15 AM 64.4 °F - 62.6 °F 94% 29.69 in 10.0 mi Calm Calm - N/A   Scattered Clouds
6:35 AM 62.6 °F - 62.6 °F 100% 29.68 in 10.0 mi Calm Calm - N/A   Mostly Cloudy
7:15 AM 62.6 °F - 62.6 °F 100% 29.69 in 10.0 mi Calm Calm - N/A   Scattered Clouds
7:35 AM 62.6 °F - 62.6 °F 100% 29.69 in 10.0 mi Calm Calm - N/A   Clear
7:55 AM 62.6 °F - 62.6 °F 100% 29.70 in 10.0 mi Calm Calm - N/A   Clear
8:15 AM 64.4 °F - 62.6 °F 94% 29.72 in 10.0 mi Calm Calm - N/A   Clear
8:35 AM 66.2 °F - 62.6 °F 88% 29.72 in 7.0 mi Calm Calm - N/A   Clear
8:55 AM 68.0 °F - 62.6 °F 83% 29.72 in 10.0 mi Calm Calm - N/A   Clear
9:15 AM 69.8 °F - 60.8 °F 73% 29.72 in 0.2 mi East 5.8 mph - N/A   Haze
9:35 AM 71.6 °F - 60.8 °F 69% 29.72 in 1.5 mi East 5.8 mph - N/A   Haze
10:15 AM 73.4 °F - 60.8 °F 65% 29.73 in 10.0 mi East 6.9 mph - N/A   Clear
10:35 AM 73.4 °F - 60.8 °F 65% 29.73 in 10.0 mi East 8.1 mph - N/A   Clear
10:55 AM 73.4 °F - 62.6 °F 69% 29.73 in 10.0 mi ENE 6.9 mph - N/A   Clear
11:15 AM 75.2 °F - 60.8 °F 61% 29.74 in 10.0 mi NE 6.9 mph - N/A   Clear
11:35 AM 77.0 °F - 60.8 °F 57% 29.74 in 10.0 mi ENE 4.6 mph - N/A   Clear
11:55 AM 77.0 °F - 62.6 °F 61% 29.73 in 10.0 mi North 6.9 mph - N/A   Clear
12:15 PM 77.0 °F - 62.6 °F 61% 29.73 in 10.0 mi NE 5.8 mph - N/A   Clear
12:35 PM 78.8 °F - 62.6 °F 57% 29.72 in 10.0 mi NNE 5.8 mph - N/A   Clear
12:55 PM 77.0 °F - 62.6 °F 61% 29.72 in 10.0 mi NE 6.9 mph - N/A   Scattered Clouds
1:15 PM 78.8 °F - 62.6 °F 57% 29.70 in 10.0 mi East 9.2 mph - N/A   Scattered Clouds
1:55 PM 78.8 °F - 60.8 °F 54% 29.69 in 10.0 mi SE 9.2 mph - N/A   Scattered Clouds
2:15 PM 80.6 °F 81.8 °F 62.6 °F 54% 29.68 in 10.0 mi SE 6.9 mph 10.4 mph N/A   Scattered Clouds
2:35 PM 78.8 °F - 62.6 °F 57% 29.68 in 10.0 mi ESE 9.2 mph - N/A   Mostly Cloudy
2:55 PM 78.8 °F - 62.6 °F 57% 29.66 in 10.0 mi East 10.4 mph - N/A   Overcast
3:15 PM 78.8 °F - 62.6 °F 57% 29.65 in 10.0 mi East 11.5 mph 18.4 mph N/A   Mostly Cloudy
3:55 PM 78.8 °F - 62.6 °F 57% 29.63 in 10.0 mi East 16.1 mph 21.9 mph N/A Thunderstorm Scattered Clouds
4:15 PM 77.0 °F - 62.6 °F 61% 29.62 in 10.0 mi ESE 11.5 mph 20.7 mph N/A Thunderstorm Mostly Cloudy
4:35 PM 73.4 °F - 62.6 °F 69% 29.65 in 10.0 mi NNE 18.4 mph 24.2 mph N/A Thunderstorm Mostly Cloudy
4:55 PM 68.0 °F - 59.0 °F 73% 29.66 in 10.0 mi North 24.2 mph 31.1 mph N/A Thunderstorm Overcast
5:15 PM 62.6 °F - 59.0 °F 88% 29.71 in 10.0 mi WNW 16.1 mph 31.1 mph N/A Thunderstorm Thunderstorm
5:35 PM 59.0 °F - 59.0 °F 100% 29.69 in 1.0 mi NE 20.7 mph 38.0 mph 0.39 in Rain , Thunderstorm Light Thunderstorms and Rain
6:15 PM 59.0 °F - 59.0 °F 100% 29.72 in 1.8 mi NE 12.7 mph 20.7 mph 0.20 in Rain , Thunderstorm Heavy Thunderstorms and Rain
6:55 PM 55.4 °F - 55.4 °F 100% 29.71 in 10.0 mi NE 11.5 mph 18.4 mph 0.28 in Rain Light Rain
7:15 PM 55.4 °F - 55.4 °F 100% 29.73 in 10.0 mi ENE 11.5 mph 20.7 mph N/A   Mostly Cloudy
7:35 PM 55.4 °F - 55.4 °F 100% 29.74 in 10.0 mi NE 12.7 mph - N/A   Overcast
7:55 PM 55.4 °F - 55.4 °F 100% 29.75 in 10.0 mi ENE 8.1 mph - N/A   Mostly Cloudy
8:15 PM 55.4 °F - 55.4 °F 100% 29.76 in 10.0 mi ENE 9.2 mph - N/A   Overcast
8:35 PM 55.4 °F - 55.4 °F 100% 29.76 in 10.0 mi NE 6.9 mph - N/A   Overcast
8:55 PM 55.4 °F - 55.4 °F 100% 29.77 in 10.0 mi NE 6.9 mph - N/A   Overcast
9:15 PM 55.4 °F - 55.4 °F 100% 29.76 in 10.0 mi NE 9.2 mph - N/A   Overcast
9:35 PM 55.4 °F - 55.4 °F 100% 29.77 in 10.0 mi NE 6.9 mph - N/A   Overcast
9:55 PM 53.6 °F - 53.6 °F 100% 29.77 in 10.0 mi NE 6.9 mph - N/A   Overcast
10:15 PM 53.6 °F - 53.6 °F 100% 29.78 in 10.0 mi NE 4.6 mph - N/A   Overcast
10:35 PM 55.4 °F - 55.4 °F 100% 29.79 in 10.0 mi NNE 9.2 mph - N/A   Overcast
10:55 PM 55.4 °F - 55.4 °F 100% 29.80 in 10.0 mi NW 9.2 mph - N/A   Overcast
11:15 PM 53.6 °F - 53.6 °F 100% 29.80 in 7.0 mi NNW 10.4 mph - 0.02 in Rain Heavy Rain
11:35 PM 53.6 °F - 53.6 °F 100% 29.80 in 5.0 mi NNE 8.1 mph - 0.11 in Rain Heavy Rain
11:55 PM 53.6 °F - 53.6 °F 100% 29.79 in 4.0 mi ENE 8.1 mph - 0.20 in Rain Heavy Rain